Regional Weather Roundup
Issued by NWS

Home | Current Version | Previous Version | Text Only | Print | Product List | Glossary Off
Versions: 1 2 3 4 5 6 7 8 9 10 11 12 13 14 15 16 17 18 19 20 21 22 23 24 25 26 27 28 29 30 31 32 33 34 35 36 37 38 39 40 41 42 43 44 45 46 47 48 49 50

000
ASUS43 KMKX 260359
RWRWI

WISCONSIN REGIONAL WEATHER ROUNDUP
NATIONAL WEATHER SERVICE MILWAUKEE/SULLIVAN WI
1100 PM CDT THU MAY 25 2017

NOTE: "FAIR" INDICATES FEW OR NO CLOUDS BELOW 12,000 FEET WITH NO
SIGNIFICANT WEATHER AND/OR OBSTRUCTIONS TO VISIBILITY.

WIZ001-002-006>008-014>016-023>028-260500-
NORTHWEST WISCONSIN

CITY           SKY/WX    TMP DP  RH WIND       PRES   REMARKS
SUPERIOR ARPT  NOT AVBL
ASHLAND        PTCLDY    47  43  86 N5        29.73S
HAYWARD        CLOUDY    59  49  69 N3        29.72R
SIREN          CLOUDY    58  52  80 CALM      29.70S
CUMBERLAND     CLOUDY    55  52  88 CALM      29.71S
RICE LAKE      CLOUDY    60  53  79 CALM      29.73R
CHETEK         CLOUDY    58  55  91 E6        29.72R
LADYSMITH      CLOUDY    60  55  83 CALM      29.74R
EAU CLAIRE     NOT AVBL
MENOMONIE      PTCLDY    60  55  83 E3        29.71S
NEW RICHMOND   MOCLDY    60  51  70 SE3       29.70R
OSCEOLA        LGT RAIN  62  53  72 CALM      29.72R
$$

WIZ003>005-009-010-017-018-260500-
NORTH CENTRAL WISCONSIN

CITY           SKY/WX    TMP DP  RH WIND       PRES   REMARKS
MANITOWISH WTR PTCLDY    58  49  70 E5        29.75R
ARBOR VITAE    CLOUDY    57  50  77 CALM      29.75R
WOODRUFF       CLOUDY    57  50  77 CALM      29.75R
RHINELANDER    CLOUDY    60  51  72 E5        29.77R
EAGLE RIVER    CLOUDY    59  44  56 SE8       29.76R
LAND O LAKES   CLEAR     54  46  73 E6        29.78R
PHILLIPS       CLOUDY    56  53  89 CALM      29.73R
TOMAHAWK       CLOUDY    54  50  87 CALM      29.76R
MEDFORD        CLEAR     55  52  88 CALM      29.74S
MERRILL        CLOUDY    56  54  93 CALM      29.75R
$$

WIZ029-030-035-036-043>047-260500-
CENTRAL WISCONSIN

CITY           SKY/WX    TMP DP  RH WIND       PRES   REMARKS
WAUSAU         CLOUDY    61  52  72 S6        29.74R
MOSINEE        CLOUDY    59  52  77 SE3       29.76R
MARSHFIELD     CLOUDY    59  50  72 CALM      29.74R
STEVENS POINT  CLOUDY    59  49  69 S5        29.76R
WAUPACA        CLOUDY    58  52  80 CALM      29.76R
WAUTOMA        MOCLDY    56  53  90 CALM      29.77
WISC RAPIDS    CLOUDY    57  51  80 SE5       29.76R
CAMP DOUGLAS   NOT AVBL
$$

WIZ011>013-019>022-031-037>040-048>050-260500-
NORTHEAST WISCONSIN

CITY           SKY/WX    TMP DP  RH WIND       PRES   REMARKS
ANTIGO         MOCLDY    57  52  85 SE7       29.77R
SHAWANO        PTCLDY    59  52  76 E6        29.77R
OCONTO         CLEAR     51  49  93 CALM      29.78R
STURGEON BAY   CLEAR     54  51  90 CALM      29.78R
GREEN BAY      CLEAR     57  53  86 E6        29.78R
MANITOWOC      NOT AVBL
APPLETON       PTCLDY    57  50  77 CALM      29.76R
CLINTONVILLE   CLOUDY    57  50  77 CALM      29.76R
OSHKOSH        CLEAR     55  52  89 SE3       29.76R
$$

WIZ032>034-041-042-053>061-260500-
SOUTHWEST WISCONSIN

CITY           SKY/WX    TMP DP  RH WIND       PRES   REMARKS
LA CROSSE      CLOUDY    62  57  83 SE5       29.71S
SPARTA         PTCLDY    54  52  95 CALM      29.74S
VIROQUA        CLOUDY    61  51  71 MISG      29.74S
BOSCOBEL       MOCLDY    56  54  93 CALM      29.73F
PRAIRIE DU CHI MOCLDY    62  52  70 E3        29.72S
PLATTEVILLE    MOCLDY    61  57  87 SE7       29.74F
$$

WIZ056-057-062-063-064-067-068-260500-
SOUTH CENTRAL WISCONSIN

CITY           SKY/WX    TMP DP  RH WIND       PRES   REMARKS
REEDSBURG      MOCLDY    59  55  86 CALM      29.74S
BARABOO/DELLS  PTCLDY    58  51  77 SE3       29.75S
LONE ROCK      NOT AVBL
MINERAL POINT  CLEAR     61  55  82 CALM      29.76R
MADISON        PTCLDY    55  51  86 CALM      29.76R
MIDDLETON      PTCLDY    56  55  99 CALM      29.77R
WATERTOWN      CLEAR     55  54  95 CALM      29.75R
MONROE         CLOUDY    61  52  72 SW6       29.77R
JANESVILLE     CLEAR     55  55 100 CALM      29.76R
$$

WIZ051-052-058>065-066-070>072-260500-
SOUTHEAST WISCONSIN

CITY           SKY/WX    TMP DP  RH WIND       PRES   REMARKS
MILWAUKEE      CLEAR     55  51  86 CALM      29.76R
WAUKESHA       CLEAR     52  50  93 CALM      29.77
MILWAUKEE/TIMM   N/A     54  46  76 CALM      29.77R
RACINE         CLEAR     53  49  86 N6        29.78R
KENOSHA        CLEAR     52  49  89 CALM      29.77R
FOND DU LAC    CLEAR     55  50  83 S5        29.76R
SHEBOYGAN      CLEAR     51  50  96 N5        29.77R
WEST BEND      CLEAR     52  52 100 CALM      29.76R FOG
JUNEAU         CLEAR     57  53  86 CALM      29.77R
$$

LSZ147-162-260500-
LAKE SUPERIOR

STATION/POSITION TIME  TEMP    WIND        PRES    WAVE
                       AIR SEA DIR/SP/G            HT/PER
                 (UTC) (F)     (DEG/KT/KT) (MB)    (FT/S)
$$

LMZ867-665-643>646-260500-
LAKE MICHIGAN

STATION/POSITION TIME  TEMP    WIND        PRES    WAVE
                       AIR SEA DIR/SP/G            HT/PER
                 (UTC) (F)     (DEG/KT/KT) (MB)    (FT/S)
$$

TC  - TEMPERATURE IN CELSIUS
VSB - VISIBILITY IN STATUTE MILES
WCI - WIND CHILL INDEX
HX  - HEAT INDEX





USA.gov is the U.S. government's official web portal to all federal, state and local government web resources and services.